Weather history for 0331

Weather History For Prescott AZ

This page updates 5 minutes after midnight. GMT -7

Station: KPRC0 Rows: 26

Return to today's weather
Year Date Temp (°F) Tmin (°F) Tmax (°F) RH% Prcp Snow Wind Gust Pres Sun Cloud
2000 2000-03-31 38.7 34.0 46.0 73 17.3 29.84 7
2001 2001-03-31 55.4 37.9 72.0 30 10.8 29.93 0
2002 2002-03-31 58.1 39.2 77.0 28 11.2 29.91 0
2003 2003-03-31 54.0 35.6 73.4 29 10.1 30.04 0
2004 2004-03-31 62.8 48.2 75.2 28 15.7 29.85 1
2005 2005-03-31 41.7 32.0 54.0 30 0.0 21.6 30.22 0
2006 2006-03-31 48.7 37.9 59.0 49 0.0 14.9 29.91 3
2007 2007-03-31 52.0 32.0 70.0 33 0.0 11.2 29.98 0
2008 2008-03-31 48.6 33.1 63.0 33 0.0 10.7 29.91 0
2009 2009-03-31 46.6 28.9 63.0 21 0.0 13.8 29.92 0
2010 2010-03-31 54.7 41.0 62.1 34 27.3 29.63 3
2011 2011-03-31 61.2 41.0 80.1 33 0.0 12.7 29.97 0
2012 2012-03-31 59.9 44.1 72.0 32 0.0 15.8 29.84 0
2013 2013-03-31 57.4 41.0 72.0 33 0.0 12.0 29.94 1
2014 2014-03-31 49.6 33.1 63.0 24 0.0 16.0 29.87 0
2015 2015-03-31 61.3 46.0 75.9 29 0.0 13.8 29.91 0
2016 2016-03-31 10.6 0.00
2017 2017-03-31 38.3 34.0 43.0 65 12.0 29.61
2018 2018-03-31 59.7 43.0 75.9 26 0.0 8.9 29.97 0
2019 2019-03-31 48.9 33.1 64.0 28 0.0 12.0 29.98 0
2020 2020-03-31 50.7 35.1 64.9 45 0.0 8.8 30.01 0
2021 2021-03-31 47.3 28.0 64.9 24 0.0 6.8 30.16 0
2022 2022-03-31 52.5 45.0 63.0 46 0.0 12.4 29.77 0
2023 2023-03-31 41.5 26.1 55.9 51 0.0 6.4 30.09 0
2024 2024-03-31 40.5 32.0 48.0 74 13.1 29.71 6
2025 2025-03-31 54.9 45.0 64.0 41 0.0 13.1 29.87 0
Average Low 37.0
Average High 64.8

Daily High / Low by Year (03/31)

Barometric Pressure by Year (03/31)

Weather data provided by Meteostat